Regional Weather Roundup
Issued by NWS

Home | Current Version | Previous Version | Text Only | Print | Product List | Glossary On
Versions: 1 2 3 4 5 6 7 8 9 10 11 12 13 14 15 16 17 18 19 20 21 22 23 24 25 26 27 28 29 30 31 32 33 34 35 36 37 38 39 40 41 42 43 44 45 46 47 48 49 50
000
ASUS44 KFWD 262001
RWRTX
NORTH TEXAS HOURLY WEATHER ROUNDUP
NATIONAL WEATHER SERVICE FORT WORTH TX
300 PM CDT TUE JUL 26 2016

NOTE: "FAIR" INDICATES FEW OR NO CLOUDS BELOW 12,000 FEET WITH NO
SIGNIFICANT WEATHER AND/OR OBSTRUCTIONS TO VISIBILITY.

TXZ118-119-262100-
DALLAS/FORT WORTH METROPLEX

CITY           SKY/WX    TMP DP  RH WIND       PRES   REMARKS
DFW AIRPORT    PTSUNNY   95  69  42 VRB5      29.90F HX 100
DALLAS LOVE    PTSUNNY   96  69  41 VRB6      29.90F HX 102
FTW MEACHAM    MOSUNNY   95  68  41 SE8       29.91F HX  99
DAL-EXECUTIVE  MOSUNNY   94  67  41 VRB5      29.91F HX  97
FTW-ALLIANCE   MOSUNNY   95  69  42 E5        29.91F HX 100
FTW-NAS-JRB    MOSUNNY   96  66  37 VRB6      29.91F HX  99
FTW-SPINKS     PTSUNNY   93  66  40 SE6       29.93F HX  96
ARLINGTON      MOSUNNY   94  69  44 VRB5      29.91F HX  99
GRAND PRAIRIE  MOSUNNY   91  68  46 CALM      29.92F HX  95
ADDISON        MOSUNNY   93  70  46 E7        29.92F HX  99
MESQUITE       PTSUNNY   91  70  49 CALM      29.91F HX  97
LANCASTER      SUNNY     96  70  43 E6        29.92F HX 102
$$

TXZ091>094-102>105-117-120-121-131>134-262100-
NORTH CENTRAL TEXAS

CITY           SKY/WX    TMP DP  RH WIND       PRES   REMARKS
SHRMAN/DENISON NOT AVBL
BOWIE          PTSUNNY   94  69  45 NE3       29.94F HX  99
BRIDGEPORT     MOSUNNY   91  70  49 CALM      29.95F HX  97
DECATUR        MOSUNNY   93  66  41 CALM      29.94F HX  96
DENTON         MOSUNNY   94  71  47 VRB5      29.91F HX 101
MCKINNEY       MOSUNNY   95  71  45 VRB6      29.90F HX 102
GREENVILLE     SUNNY     95  68  41 CALM      29.90F HX  99
ROCKWALL       MOSUNNY   94  71  47 NE5       29.89F HX 101
TERRELL        SUNNY     96  70  42 SE9       29.90F HX 102
WAXAHACHIE     MOSUNNY   94  71  47 E5        29.92F HX 101
CLEBURNE       MOSUNNY   93  72  49 VRB5      29.94F HX 100
GRANBURY       MOSUNNY   95  66  39 E10       29.92F HX  98
$$

TXZ083>090-098>101-113>116-127>130-139>142-154-155-262100-
WESTERN NORTH TEXAS

CITY           SKY/WX    TMP DP  RH WIND       PRES   REMARKS
WICHITA FALLS  PTSUNNY   94  70  45 VRB6      29.94F HX 100
WF-KICKAPOO    SUNNY     96  67  38 NE5       29.95F HX  99
VERNON         SUNNY     95  58  28 SE5       29.96F HX  94
ABILENE        MOSUNNY   95  65  37 E12G17    29.97F HX  97
ABILENE-DYESS  MOSUNNY   95  66  38 E8        29.95F HX  98
CISCO          MOSUNNY   93  66  40 VRB5G14   29.98F HX  96
GRAHAM         MOSUNNY   98  68  37 N7        29.92F HX 102
MINERAL WELLS  MOSUNNY   94  68  42 E5        29.91F HX  98
STEPHENVILLE   MOSUNNY   94  64  37 E7        29.97F HX  95
COMANCHE       PTSUNNY   92  67  43 E7        29.96F HX  95
COLEMAN        MOSUNNY   93  64  38 E10       29.96F HX  94
$$

TXZ143>147-156>162-174-175-262100-
CENTRAL TEXAS

CITY           SKY/WX    TMP DP  RH WIND       PRES   REMARKS
WACO           MOSUNNY   94  70  45 NE8       29.91F HX 100
WACO-MCGREGOR  SUNNY     93  71  48 VRB5      29.91F HX 100
HILLSBORO      MOSUNNY   92  70  47 E6        29.92F HX  98
CORSICANA      SUNNY     93  73  52 CALM      29.92F HX 102
MEXIA          PTSUNNY   91  71  50 SE6       29.91F HX  97
HEARNE         MOSUNNY   92  71  48 E7        29.92F HX  98
CAMERON        MOSUNNY   93  71  48 E8        29.91S HX 100
TEMPLE         PTSUNNY   93  71  48 E5        29.92F HAZE    HX 100
KILLEEN        MOSUNNY   92  69  47 E9        29.92F HX  97
KILLEEN-SKYLRK MOSUNNY   92  70  48 E6        29.92F HX  97
FORT HOOD      PTSUNNY   90  70  51 E6        29.90F HX  95
HAMILTON       PTSUNNY   94  67  41 SE10      29.95F HX  97
$$

TXZ095>097-106>112-122>126-135>138-148>153-164>167-262100-
EAST TEXAS

CITY           SKY/WX    TMP DP  RH WIND       PRES   REMARKS
PARIS          MOSUNNY   95  68  41 S5        29.91F HX  99
SULPHUR SPRNGS SUNNY     96  67  38 SE3       29.91F HX  99
MOUNT PLEASANT SUNNY     95  67  40 E10       29.90F HX  98
GILMER         MOSUNNY   93  70  47 E6        29.90F HX  98
MINEOLA        MOSUNNY   93  72  49 E6        29.91F HX 100
TYLER          PTSUNNY   94  71  47 E7        29.90F HX 101
LONGVIEW       MOSUNNY   93  73  52 E10       29.90F HX 102
MARSHALL       MOSUNNY   91  70  50 SE5       29.93F HX  96
ATHENS         PTSUNNY   90  72  55 CALM      29.89F HX  96
PALESTINE      PTSUNNY   91  74  57 NE6       29.92F HX 100
JACKSONVILLE   MOSUNNY   92  71  49 E7        29.94F HX  98
HENDERSON      PTSUNNY   91  72  53 SE10      29.92F HX  98
CENTER         PTCLDY    92  73  53 SE6       29.92F HX 101
NACOGDOCHES    SUNNY    N/A N/A N/A E3        29.88F
LUFKIN         MOSUNNY   91  73  55 E6        29.90F HX  99
$$

SUPPLEMENTAL OBSERVATIONS (CENTRAL)

CITY           SKY/WX    TMP DP  RH WIND       PRES   REMARKS
$$

SUPPLEMENTAL OBSERVATIONS (WEST)

CITY           SKY/WX    TMP DP  RH WIND       PRES   REMARKS
$$

SUPPLEMENTAL OBSERVATIONS (EAST)

CITY           SKY/WX    TMP DP  RH WIND       PRES   REMARKS
$$

SUPPLEMENTAL OBSERVATIONS ARE A COLLECTION OF AUTOMATED INSTRUMENTS
THAT ARE MAINTAINED BY A VARIETY OF FEDERAL AND STATE AGENCIES.
CERTAIN ELEMENTS...SUCH AS HUMIDITY VALUES AND SUSTAINED WIND
SPEEDS...MAY BE APPROXIMATED.





USA.gov is the U.S. government's official web portal to all federal, state and local government web resources and services.